Regional Weather Roundup
Issued by NWS

Home | Current Version | Previous Version | Text Only | Print | Product List | Glossary Off
Versions: 1 2 3 4 5 6 7 8 9 10 11 12 13 14 15 16 17 18 19 20 21 22 23 24 25 26 27 28 29 30 31 32 33 34 35 36 37 38 39 40 41 42 43 44 45 46 47 48 49 50

000
ASUS43 KIND 251059
RWRIN

WEATHER ROUNDUP FOR INDIANA
NATIONAL WEATHER SERVICE INDIANAPOLIS IN
700 AM EDT TUE APR 25 2017

NOTE: "FAIR" INDICATES FEW OR NO CLOUDS BELOW 12,000 FEET WITH NO
SIGNIFICANT WEATHER AND/OR OBSTRUCTIONS TO VISIBILITY.

* - STATION DOES NOT REPORT WEATHER SUCH AS PRECIPITATION OR FOG.

+ - STATION NOT QUALITY CONTROLLED BY THE NATIONAL WEATHER SERVICE.
    USE DATA WITH CAUTION...ESPECIALLY DEWPOINT AND RELATIVE
    HUMIDITY OBSERVATIONS.

INZ001>003-010>013-019-020-251200-
NORTHWEST INDIANA

CITY           SKY/WX    TMP DP  RH WIND       PRES   REMARKS
GARY /AIRPORT/ PTCLDY    57  48  72 SE13      29.74S
KNOX *+        CLEAR     52  34  50 SE9       29.76F
MONTICELLO +   CLEAR     54  50  87 SE5       29.76S

$$

LMZ046-743>745-251200-
SOUTHERN LAKE MICHIGAN

STATION/POSITION TIME  TEMP    WIND        PRES    WAVE
                       AIR SEA DIR/SP/G            HT
                 (UTC) (F)     (DEG/KT/KT) (MB)    (FT)
BURNS HARBOR     1040   57     140/ 10/ 18 1007.5F
MICHIGAN CITY    1030   56     130/ 12/ 14   N/A

$$

INZ004-005-014>016-021>024-251200-
NORTH CENTRAL INDIANA

CITY           SKY/WX    TMP DP  RH WIND       PRES   REMARKS
ELKHART        CLEAR     50  46  87 SE3       29.79
GOSHEN         CLEAR     52  46  80 SE9       29.80R
PERU/GRISSOM   CLEAR     52  52 100 E7        29.77R
SOUTH BEND     CLEAR     50  45  83 SE8       29.79S

$$

INZ006>009-017-018-025>027-251200-
NORTHEAST INDIANA

CITY           SKY/WX    TMP DP  RH WIND       PRES   REMARKS
ANGOLA *+      CLOUDY    52  48  87 SE6       29.82S
FORT WAYNE     MOCLDY    53  47  79 E9        29.82R
KENDALLVILLE + CLOUDY    50  48  90 SE7       29.81F

$$

INZ028-029-035-036-043>045-051>053-251200-
WEST CENTRAL INDIANA

CITY           SKY/WX    TMP DP  RH WIND       PRES   REMARKS
CRAWFORDSVL +  CLEAR     48  48 100 SE6       29.76S
LAFAYETTE      CLEAR     51  49  92 E6        29.75F
TERRE HAUTE    CLEAR     50  47  89 E3        29.76S

$$

INZ030>032-037>040-046>048-054>057-064-065-251200-
CENTRAL INDIANA

CITY           SKY/WX    TMP DP  RH WIND       PRES   REMARKS
COLUMBUS       PTCLDY    48  46  93 CALM      29.79
INDIANAPOLIS   PTCLDY    53  50  89 SE7       29.78R
-EAGLE CREEK   CLEAR     53  49  86 SE3       29.78R
KOKOMO +       CLEAR     52  50  93 E7        29.79R
SHELBYVILLE    CLEAR     56  50  80 SE5       29.79R

$$

INZ033-034-041-042-049-050-058-059-251200-
EAST CENTRAL INDIANA

CITY           SKY/WX    TMP DP  RH WIND       PRES   REMARKS
MUNCIE         CLEAR     55  49  80 SE8       29.80R
RICHMOND +     CLEAR     46  45  93 E8        29.82S

$$

INZ060-061-067>069-081>083-085>088-251200-
SOUTHWEST INDIANA

CITY           SKY/WX    TMP DP  RH WIND       PRES   REMARKS
EVANSVILLE     CLEAR     52  50  93 CALM      29.76R
HUNTINGBURG *+ CLEAR     54  52  93 SE3       29.77R

$$

INZ062-063-066-070>080-084-089>092-251200-
SOUTH CENTRAL AND SOUTHEAST INDIANA

CITY           SKY/WX    TMP DP  RH WIND       PRES   REMARKS
BLOOMINGTON    CLEAR    N/A N/A N/A CALM      29.77R
MADISON *+     CLEAR     54  50  87 CALM      29.81R
SEYMOUR +      CLEAR     54  52  94 CALM      29.79R

$$




USA.gov is the U.S. government's official web portal to all federal, state and local government web resources and services.